Year,Month,Day,Hour,Minute,Value (Times are PST for temperature in C)
2020,04,15,00,00,10.20
2020,04,15,00,01,10.20
2020,04,15,00,02,10.20
2020,04,15,00,03,10.20
2020,04,15,00,04,10.10
2020,04,15,00,05,10.10
2020,04,15,00,06,10.10
2020,04,15,00,07,10.10
2020,04,15,00,08,10.10
2020,04,15,00,09,10.00
2020,04,15,00,10,10.00
2020,04,15,00,11,10.00
2020,04,15,00,12,9.90
2020,04,15,00,13,9.90
2020,04,15,00,14,9.90
2020,04,15,00,15,9.80
2020,04,15,00,16,9.80
2020,04,15,00,17,9.80
2020,04,15,00,18,9.80
2020,04,15,00,19,9.80
2020,04,15,00,20,9.80
2020,04,15,00,21,9.70
2020,04,15,00,22,9.70
2020,04,15,00,23,9.70
2020,04,15,00,24,9.60
2020,04,15,00,25,9.60
2020,04,15,00,26,9.50
2020,04,15,00,27,9.50
2020,04,15,00,28,9.40
2020,04,15,00,29,9.40
2020,04,15,00,30,9.40
2020,04,15,00,31,9.30
2020,04,15,00,32,9.30
2020,04,15,00,33,9.30
2020,04,15,00,34,9.30
2020,04,15,00,35,9.30
2020,04,15,00,36,9.30
2020,04,15,00,37,9.20
2020,04,15,00,38,9.20
2020,04,15,00,39,9.20
2020,04,15,00,40,9.10
2020,04,15,00,41,9.10
2020,04,15,00,42,9.10
2020,04,15,00,43,9.10
2020,04,15,00,44,9.00
2020,04,15,00,45,9.00
2020,04,15,00,46,8.90
2020,04,15,00,47,8.90
2020,04,15,00,48,8.90
2020,04,15,00,49,8.90
2020,04,15,00,50,8.90
2020,04,15,00,51,8.80
2020,04,15,00,52,8.80
2020,04,15,00,53,8.80
2020,04,15,00,54,8.80
2020,04,15,00,55,8.80
2020,04,15,00,56,8.80
2020,04,15,00,57,8.80
2020,04,15,00,58,8.80
2020,04,15,00,59,8.80
2020,04,15,01,00,8.70
2020,04,15,01,01,8.70
2020,04,15,01,02,8.70
2020,04,15,01,03,8.70
2020,04,15,01,04,8.70
2020,04,15,01,05,8.70
2020,04,15,01,06,8.70
2020,04,15,01,07,8.70
2020,04,15,01,08,8.70
2020,04,15,01,09,8.70
2020,04,15,01,10,8.70
2020,04,15,01,11,8.70
2020,04,15,01,12,8.70
2020,04,15,01,13,8.60
2020,04,15,01,14,8.60
2020,04,15,01,15,8.60
2020,04,15,01,16,8.50
2020,04,15,01,17,8.50
2020,04,15,01,18,8.40
2020,04,15,01,19,8.40
2020,04,15,01,20,8.40
2020,04,15,01,21,8.30
2020,04,15,01,22,8.30
2020,04,15,01,23,8.30
2020,04,15,01,24,8.30
2020,04,15,01,25,8.30
2020,04,15,01,26,8.30
2020,04,15,01,27,8.40
2020,04,15,01,28,8.50
2020,04,15,01,29,8.60
2020,04,15,01,30,8.60
2020,04,15,01,31,8.60
2020,04,15,01,32,8.60
2020,04,15,01,33,8.60
2020,04,15,01,34,8.60
2020,04,15,01,35,8.60
2020,04,15,01,36,8.60
2020,04,15,01,37,8.60
2020,04,15,01,38,8.60
2020,04,15,01,39,8.70
2020,04,15,01,40,8.60
2020,04,15,01,41,8.60
2020,04,15,01,42,8.60
2020,04,15,01,43,8.60
2020,04,15,01,44,8.50
2020,04,15,01,45,8.50
2020,04,15,01,46,8.40
2020,04,15,01,47,8.40
2020,04,15,01,48,8.40
2020,04,15,01,49,8.40
2020,04,15,01,50,8.40
2020,04,15,01,51,8.30
2020,04,15,01,52,8.40
2020,04,15,01,53,8.40
2020,04,15,01,54,8.40
2020,04,15,01,55,8.50
2020,04,15,01,56,8.40
2020,04,15,01,57,8.50
2020,04,15,01,58,8.50
2020,04,15,01,59,8.50
2020,04,15,02,00,8.40
2020,04,15,02,01,8.40
2020,04,15,02,02,8.40
2020,04,15,02,03,8.40
2020,04,15,02,04,8.40
2020,04,15,02,05,8.40
2020,04,15,02,06,8.40
2020,04,15,02,07,8.40
2020,04,15,02,08,8.40
2020,04,15,02,09,8.40
2020,04,15,02,10,8.40
2020,04,15,02,11,8.40
2020,04,15,02,12,8.30
2020,04,15,02,13,8.30
2020,04,15,02,14,8.30
2020,04,15,02,15,8.30
2020,04,15,02,16,8.30
2020,04,15,02,17,8.30
2020,04,15,02,18,8.30
2020,04,15,02,19,8.30
2020,04,15,02,20,8.30
2020,04,15,02,21,8.20
2020,04,15,02,22,8.20
2020,04,15,02,23,8.20
2020,04,15,02,24,8.20
2020,04,15,02,25,8.20
2020,04,15,02,26,8.20
2020,04,15,02,27,8.20
2020,04,15,02,28,8.20
2020,04,15,02,29,8.20
2020,04,15,02,30,8.20
2020,04,15,02,31,8.20
2020,04,15,02,32,8.20
2020,04,15,02,33,8.20
2020,04,15,02,34,8.20
2020,04,15,02,35,8.20
2020,04,15,02,36,8.20
2020,04,15,02,37,8.20
2020,04,15,02,38,8.30
2020,04,15,02,39,8.30
2020,04,15,02,40,8.30
2020,04,15,02,41,8.40
2020,04,15,02,42,8.40
2020,04,15,02,43,8.50
2020,04,15,02,44,8.50
2020,04,15,02,45,8.60
2020,04,15,02,46,8.60
2020,04,15,02,47,8.70
2020,04,15,02,48,8.70
2020,04,15,02,49,8.70
2020,04,15,02,50,8.70
2020,04,15,02,51,8.70
2020,04,15,02,52,8.70
2020,04,15,02,53,8.70
2020,04,15,02,54,8.70
2020,04,15,02,55,8.70
2020,04,15,02,56,8.70
2020,04,15,02,57,8.60
2020,04,15,02,58,8.60
2020,04,15,02,59,8.60
2020,04,15,03,00,8.60
2020,04,15,03,01,8.60
2020,04,15,03,02,8.60
2020,04,15,03,03,8.60
2020,04,15,03,04,8.60
2020,04,15,03,05,8.60
2020,04,15,03,06,8.60
2020,04,15,03,07,8.60
2020,04,15,03,08,8.60
2020,04,15,03,09,8.60
2020,04,15,03,10,8.60
2020,04,15,03,11,8.60
2020,04,15,03,12,8.50
2020,04,15,03,13,8.50
2020,04,15,03,14,8.50
2020,04,15,03,15,8.40
2020,04,15,03,16,8.40
2020,04,15,03,17,8.50
2020,04,15,03,18,8.50
2020,04,15,03,19,8.50
2020,04,15,03,20,8.40
2020,04,15,03,21,8.40
2020,04,15,03,22,8.40
2020,04,15,03,23,8.40
2020,04,15,03,24,8.30
2020,04,15,03,25,8.30
2020,04,15,03,26,8.30
2020,04,15,03,27,8.30
2020,04,15,03,28,8.20
2020,04,15,03,29,8.20
2020,04,15,03,30,8.20
2020,04,15,03,31,8.20
2020,04,15,03,32,8.20
2020,04,15,03,33,8.20
2020,04,15,03,34,8.20
2020,04,15,03,35,8.20
2020,04,15,03,36,8.20
2020,04,15,03,37,8.20
2020,04,15,03,38,8.20
2020,04,15,03,39,8.20
2020,04,15,03,40,8.20
2020,04,15,03,41,8.20
2020,04,15,03,42,8.20
2020,04,15,03,43,8.20
2020,04,15,03,44,8.20
2020,04,15,03,45,8.20
2020,04,15,03,46,8.30
2020,04,15,03,47,8.30
2020,04,15,03,48,8.30
2020,04,15,03,49,8.30
2020,04,15,03,50,8.40
2020,04,15,03,51,8.40
2020,04,15,03,52,8.40
2020,04,15,03,53,8.50
2020,04,15,03,54,8.60
2020,04,15,03,55,8.70
2020,04,15,03,56,8.70
2020,04,15,03,57,8.80
2020,04,15,03,58,8.80
2020,04,15,03,59,8.80
2020,04,15,04,00,8.90
2020,04,15,04,01,8.90
2020,04,15,04,02,8.90
2020,04,15,04,03,8.90
2020,04,15,04,04,8.90
2020,04,15,04,05,8.90
2020,04,15,04,06,8.90
2020,04,15,04,07,9.00
2020,04,15,04,08,8.90
2020,04,15,04,09,8.90
2020,04,15,04,10,8.90
2020,04,15,04,11,8.90
2020,04,15,04,12,8.90
2020,04,15,04,13,8.90
2020,04,15,04,14,8.80
2020,04,15,04,15,8.80
2020,04,15,04,16,8.80
2020,04,15,04,17,8.90
2020,04,15,04,18,8.90
2020,04,15,04,19,8.80
2020,04,15,04,20,8.80
2020,04,15,04,21,8.80
2020,04,15,04,22,8.80
2020,04,15,04,23,8.80
2020,04,15,04,24,8.80
2020,04,15,04,25,8.80
2020,04,15,04,26,8.80
2020,04,15,04,27,8.80
2020,04,15,04,28,8.80
2020,04,15,04,29,8.80
2020,04,15,04,30,8.80
2020,04,15,04,31,8.80
2020,04,15,04,32,8.80
2020,04,15,04,33,8.80
2020,04,15,04,34,8.70
2020,04,15,04,35,8.70
2020,04,15,04,36,8.70
2020,04,15,04,37,8.70
2020,04,15,04,38,8.70
2020,04,15,04,39,8.70
2020,04,15,04,40,8.70
2020,04,15,04,41,8.70
2020,04,15,04,42,8.70
2020,04,15,04,43,8.60
2020,04,15,04,44,8.60
2020,04,15,04,45,8.60
2020,04,15,04,46,8.50
2020,04,15,04,47,8.50
2020,04,15,04,48,8.50
2020,04,15,04,49,8.40
2020,04,15,04,50,8.40
2020,04,15,04,51,8.40
2020,04,15,04,52,8.40
2020,04,15,04,53,8.40
2020,04,15,04,54,8.40
2020,04,15,04,55,8.40
2020,04,15,04,56,8.40
2020,04,15,04,57,8.50
2020,04,15,04,58,8.40
2020,04,15,04,59,8.50
2020,04,15,05,00,8.50
2020,04,15,05,01,8.50
2020,04,15,05,02,8.60
2020,04,15,05,03,8.60
2020,04,15,05,04,8.60
2020,04,15,05,05,8.60
2020,04,15,05,06,8.60
2020,04,15,05,07,8.60
2020,04,15,05,08,8.60
2020,04,15,05,09,8.60
2020,04,15,05,10,8.60
2020,04,15,05,11,8.70
2020,04,15,05,12,8.70
2020,04,15,05,13,8.70
2020,04,15,05,14,8.70
2020,04,15,05,15,8.70
2020,04,15,05,16,8.70
2020,04,15,05,17,8.70
2020,04,15,05,18,8.70
2020,04,15,05,19,8.70
2020,04,15,05,20,8.70
2020,04,15,05,21,8.70
2020,04,15,05,22,8.60
2020,04,15,05,23,8.60
2020,04,15,05,24,8.60
2020,04,15,05,25,8.60
2020,04,15,05,26,8.60
2020,04,15,05,27,8.70
2020,04,15,05,28,8.70
2020,04,15,05,29,8.70
2020,04,15,05,30,8.70
2020,04,15,05,31,8.70
2020,04,15,05,32,8.60
2020,04,15,05,33,8.60
2020,04,15,05,34,8.60
2020,04,15,05,35,8.60
2020,04,15,05,36,8.60
2020,04,15,05,37,8.60
2020,04,15,05,38,8.60
2020,04,15,05,39,8.60
2020,04,15,05,40,8.60
2020,04,15,05,41,8.60
2020,04,15,05,42,8.60
2020,04,15,05,43,8.60
2020,04,15,05,44,8.70
2020,04,15,05,45,8.60
2020,04,15,05,46,8.70
2020,04,15,05,47,8.60
2020,04,15,05,48,8.70
2020,04,15,05,49,8.70
2020,04,15,05,50,8.70
2020,04,15,05,51,8.70
2020,04,15,05,52,8.70
2020,04,15,05,53,8.70
2020,04,15,05,54,8.60
2020,04,15,05,55,8.60
2020,04,15,05,56,8.60
2020,04,15,05,57,8.60
2020,04,15,05,58,8.60
2020,04,15,05,59,8.60
2020,04,15,06,00,8.60
2020,04,15,06,01,8.50
2020,04,15,06,02,8.50
2020,04,15,06,03,8.50
2020,04,15,06,04,8.50
2020,04,15,06,05,8.50
2020,04,15,06,06,8.60
2020,04,15,06,07,8.60
2020,04,15,06,08,8.70
2020,04,15,06,09,8.70
2020,04,15,06,10,8.70
2020,04,15,06,11,8.80
2020,04,15,06,12,8.80
2020,04,15,06,13,8.80
2020,04,15,06,14,8.80
2020,04,15,06,15,8.70
2020,04,15,06,16,8.70
2020,04,15,06,17,8.70
2020,04,15,06,18,8.70
2020,04,15,06,19,8.70
2020,04,15,06,20,8.70
2020,04,15,06,21,8.70
2020,04,15,06,22,8.60
2020,04,15,06,23,8.60
2020,04,15,06,24,8.60
2020,04,15,06,25,8.60
2020,04,15,06,26,8.60
2020,04,15,06,27,8.50
2020,04,15,06,28,8.50
2020,04,15,06,29,8.50
2020,04,15,06,30,8.50
2020,04,15,06,31,8.40
2020,04,15,06,32,8.40
2020,04,15,06,33,8.30
2020,04,15,06,34,8.30
2020,04,15,06,35,8.30
2020,04,15,06,36,8.30
2020,04,15,06,37,8.30
2020,04,15,06,38,8.20
2020,04,15,06,39,8.20
2020,04,15,06,40,8.30
2020,04,15,06,41,8.30
2020,04,15,06,42,8.30
2020,04,15,06,43,8.30
2020,04,15,06,44,8.30
2020,04,15,06,45,8.30
2020,04,15,06,46,8.40
2020,04,15,06,47,8.40
2020,04,15,06,48,8.50
2020,04,15,06,49,8.50
2020,04,15,06,50,8.50
2020,04,15,06,51,8.50
2020,04,15,06,52,8.50
2020,04,15,06,53,8.50
2020,04,15,06,54,8.60
2020,04,15,06,55,8.60
2020,04,15,06,56,8.60
2020,04,15,06,57,8.60
2020,04,15,06,58,8.70
2020,04,15,06,59,8.70
2020,04,15,07,00,8.70
2020,04,15,07,01,8.80
2020,04,15,07,02,8.80
2020,04,15,07,03,8.80
2020,04,15,07,04,8.80
2020,04,15,07,05,8.80
2020,04,15,07,06,8.80
2020,04,15,07,07,8.80
2020,04,15,07,08,8.80
2020,04,15,07,09,8.80
2020,04,15,07,10,8.90
2020,04,15,07,11,8.90
2020,04,15,07,12,9.00
2020,04,15,07,13,9.00
2020,04,15,07,14,9.00
2020,04,15,07,15,9.00
2020,04,15,07,16,9.00
2020,04,15,07,17,9.10
2020,04,15,07,18,9.10
2020,04,15,07,19,9.10
2020,04,15,07,20,9.10
2020,04,15,07,21,9.20
2020,04,15,07,22,9.30
2020,04,15,07,23,9.30
2020,04,15,07,24,9.30
2020,04,15,07,25,9.40
2020,04,15,07,26,9.50
2020,04,15,07,27,9.60
2020,04,15,07,28,9.60
2020,04,15,07,29,9.70
2020,04,15,07,30,9.70
2020,04,15,07,31,9.80
2020,04,15,07,32,9.80
2020,04,15,07,33,9.90
2020,04,15,07,34,9.90
2020,04,15,07,35,10.00
2020,04,15,07,36,10.00
2020,04,15,07,37,10.10
2020,04,15,07,38,10.10
2020,04,15,07,39,10.20
2020,04,15,07,40,10.20
2020,04,15,07,41,10.20
2020,04,15,07,42,10.20
2020,04,15,07,43,10.30
2020,04,15,07,44,10.30
2020,04,15,07,45,10.40
2020,04,15,07,46,10.40
2020,04,15,07,47,10.50
2020,04,15,07,48,10.50
2020,04,15,07,49,10.60
2020,04,15,07,50,10.60
2020,04,15,07,51,10.60
2020,04,15,07,52,10.60
2020,04,15,07,53,10.70
2020,04,15,07,54,10.70
2020,04,15,07,55,10.70
2020,04,15,07,56,10.70
2020,04,15,07,57,10.70
2020,04,15,07,58,10.80
2020,04,15,07,59,10.80
2020,04,15,08,00,10.80
2020,04,15,08,01,10.80
2020,04,15,08,02,10.90
2020,04,15,08,03,10.90
2020,04,15,08,04,11.00
2020,04,15,08,05,11.00
2020,04,15,08,06,11.10
2020,04,15,08,07,11.10
2020,04,15,08,08,11.10
2020,04,15,08,09,11.10
2020,04,15,08,10,11.10
2020,04,15,08,11,11.10
2020,04,15,08,12,11.10
2020,04,15,08,13,11.10
2020,04,15,08,14,11.20
2020,04,15,08,15,11.20
2020,04,15,08,16,11.20
2020,04,15,08,17,11.20
2020,04,15,08,18,11.20
2020,04,15,08,19,11.30
2020,04,15,08,20,11.30
2020,04,15,08,21,11.30
2020,04,15,08,22,11.30
2020,04,15,08,23,11.30
2020,04,15,08,24,11.30
2020,04,15,08,25,11.30
2020,04,15,08,26,11.30
2020,04,15,08,27,11.30
2020,04,15,08,28,11.40
2020,04,15,08,29,11.40
2020,04,15,08,30,11.40
2020,04,15,08,31,11.40
2020,04,15,08,32,11.40
2020,04,15,08,33,11.40
2020,04,15,08,34,11.30
2020,04,15,08,35,11.30
2020,04,15,08,36,11.30
2020,04,15,08,37,11.30
2020,04,15,08,38,11.40
2020,04,15,08,39,11.40
2020,04,15,08,40,11.40
2020,04,15,08,41,11.40
2020,04,15,08,42,11.50
2020,04,15,08,43,11.50
2020,04,15,08,44,11.50
2020,04,15,08,45,11.60
2020,04,15,08,46,11.60
2020,04,15,08,47,11.60
2020,04,15,08,48,11.60
2020,04,15,08,49,11.60
2020,04,15,08,50,11.60
2020,04,15,08,51,11.60
2020,04,15,08,52,11.60
2020,04,15,08,53,11.60
2020,04,15,08,54,11.70
2020,04,15,08,55,11.70
2020,04,15,08,56,11.70
2020,04,15,08,57,11.70
2020,04,15,08,58,11.70
2020,04,15,08,59,11.80
2020,04,15,09,00,11.80
2020,04,15,09,01,11.80
2020,04,15,09,02,11.70
2020,04,15,09,03,11.70
2020,04,15,09,04,11.70
2020,04,15,09,05,11.80
2020,04,15,09,06,11.70
2020,04,15,09,07,11.70
2020,04,15,09,08,11.70
2020,04,15,09,09,11.70
2020,04,15,09,10,11.80
2020,04,15,09,11,11.80
2020,04,15,09,12,11.90
2020,04,15,09,13,12.00
2020,04,15,09,14,12.00
2020,04,15,09,15,12.10
2020,04,15,09,16,12.10
2020,04,15,09,17,12.20
2020,04,15,09,18,12.20
2020,04,15,09,19,12.30
2020,04,15,09,20,12.20
2020,04,15,09,21,12.30
2020,04,15,09,22,12.20
2020,04,15,09,23,12.30
2020,04,15,09,24,12.30
2020,04,15,09,25,12.30
2020,04,15,09,26,12.40
2020,04,15,09,27,12.50
2020,04,15,09,28,12.60
2020,04,15,09,29,12.60
2020,04,15,09,30,12.60
2020,04,15,09,31,12.60
2020,04,15,09,32,12.60
2020,04,15,09,33,12.70
2020,04,15,09,34,12.60
2020,04,15,09,35,12.50
2020,04,15,09,36,12.40
2020,04,15,09,37,12.40
2020,04,15,09,38,12.40
2020,04,15,09,39,12.30
2020,04,15,09,40,12.30
2020,04,15,09,41,12.30
2020,04,15,09,42,12.30
2020,04,15,09,43,12.30
2020,04,15,09,44,12.30
2020,04,15,09,45,12.30
2020,04,15,09,46,12.30
2020,04,15,09,47,12.30
2020,04,15,09,48,12.30
2020,04,15,09,49,12.30
2020,04,15,09,50,12.30
2020,04,15,09,51,12.30
2020,04,15,09,52,12.30
2020,04,15,09,53,12.20
2020,04,15,09,54,12.20
2020,04,15,09,55,12.30
2020,04,15,09,56,12.20
2020,04,15,09,57,12.20
2020,04,15,09,58,12.20
2020,04,15,09,59,12.10
2020,04,15,10,00,12.10
2020,04,15,10,01,12.10
2020,04,15,10,02,12.10
2020,04,15,10,03,12.10
2020,04,15,10,04,12.10
2020,04,15,10,05,12.10
2020,04,15,10,06,12.10
2020,04,15,10,07,12.10
2020,04,15,10,08,12.10
2020,04,15,10,09,12.10
2020,04,15,10,10,12.10
2020,04,15,10,11,12.20
2020,04,15,10,12,12.20
2020,04,15,10,13,12.20
2020,04,15,10,14,12.10
2020,04,15,10,15,12.10
2020,04,15,10,16,12.10
2020,04,15,10,17,12.10
2020,04,15,10,18,12.10
2020,04,15,10,19,12.10
2020,04,15,10,20,12.20
2020,04,15,10,21,12.20
2020,04,15,10,22,12.20
2020,04,15,10,23,12.20
2020,04,15,10,24,12.10
2020,04,15,10,25,12.10
2020,04,15,10,26,12.10
2020,04,15,10,27,12.10
2020,04,15,10,28,12.20
2020,04,15,10,29,12.30
2020,04,15,10,30,12.30
2020,04,15,10,31,12.30
2020,04,15,10,32,12.40
2020,04,15,10,33,12.40
2020,04,15,10,34,12.40
2020,04,15,10,35,12.50
2020,04,15,10,36,12.50
2020,04,15,10,37,12.60
2020,04,15,10,38,12.60
2020,04,15,10,39,12.70
2020,04,15,10,40,12.70
2020,04,15,10,41,12.70
2020,04,15,10,42,12.70
2020,04,15,10,43,12.70
2020,04,15,10,44,12.60
2020,04,15,10,45,12.60
2020,04,15,10,46,12.60
2020,04,15,10,47,12.50
2020,04,15,10,48,12.60
2020,04,15,10,49,12.70
2020,04,15,10,50,12.80
2020,04,15,10,51,12.80
2020,04,15,10,52,12.90
2020,04,15,10,53,12.90
2020,04,15,10,54,12.90
2020,04,15,10,55,12.80
2020,04,15,10,56,12.80
2020,04,15,10,57,12.80
2020,04,15,10,58,12.80
2020,04,15,10,59,12.80
2020,04,15,11,00,12.80
2020,04,15,11,01,12.80
2020,04,15,11,02,12.80
2020,04,15,11,03,12.80
2020,04,15,11,04,12.80
2020,04,15,11,05,12.80
2020,04,15,11,06,12.80
2020,04,15,11,07,12.80
2020,04,15,11,08,12.80
2020,04,15,11,09,12.80
2020,04,15,11,10,12.80
2020,04,15,11,11,12.80
2020,04,15,11,12,12.70
2020,04,15,11,13,12.70
2020,04,15,11,14,12.70
2020,04,15,11,15,12.70
2020,04,15,11,16,12.80
2020,04,15,11,17,12.80
2020,04,15,11,18,12.80
2020,04,15,11,19,13.00
2020,04,15,11,20,13.00
2020,04,15,11,21,13.00
2020,04,15,11,22,13.00
2020,04,15,11,23,13.10
2020,04,15,11,24,13.10
2020,04,15,11,25,13.10
2020,04,15,11,26,13.10
2020,04,15,11,27,13.10
2020,04,15,11,28,13.00
2020,04,15,11,29,13.00
2020,04,15,11,30,13.10
2020,04,15,11,31,13.20
2020,04,15,11,32,13.30
2020,04,15,11,33,13.30
2020,04,15,11,34,13.40
2020,04,15,11,35,13.40
2020,04,15,11,36,13.40
2020,04,15,11,37,13.30
2020,04,15,11,38,13.40
2020,04,15,11,39,13.40
2020,04,15,11,40,13.30
2020,04,15,11,41,13.30
2020,04,15,11,42,13.30
2020,04,15,11,43,13.30
2020,04,15,11,44,13.40
2020,04,15,11,45,13.40
2020,04,15,11,46,13.40
2020,04,15,11,47,13.30
2020,04,15,11,48,13.30
2020,04,15,11,49,13.30
2020,04,15,11,50,13.30
2020,04,15,11,51,13.40
2020,04,15,11,52,13.30
2020,04,15,11,53,13.40
2020,04,15,11,54,13.40
2020,04,15,11,55,13.40
2020,04,15,11,56,13.50
2020,04,15,11,57,13.50
2020,04,15,11,58,13.40
2020,04,15,11,59,13.40
2020,04,15,12,00,13.40
2020,04,15,12,01,13.50
2020,04,15,12,02,13.60
2020,04,15,12,03,13.70
2020,04,15,12,04,13.80
2020,04,15,12,05,13.80
2020,04,15,12,06,13.80
2020,04,15,12,07,13.80
2020,04,15,12,08,13.80
2020,04,15,12,09,13.90
2020,04,15,12,10,13.90
2020,04,15,12,11,13.90
2020,04,15,12,12,13.80
2020,04,15,12,13,13.70
2020,04,15,12,14,13.60
2020,04,15,12,15,13.60
2020,04,15,12,16,13.50
2020,04,15,12,17,13.50
2020,04,15,12,18,13.60
2020,04,15,12,19,13.70
2020,04,15,12,20,13.80
2020,04,15,12,21,13.80
2020,04,15,12,22,13.90
2020,04,15,12,23,14.00
2020,04,15,12,24,14.10
2020,04,15,12,25,14.20
2020,04,15,12,26,14.30
2020,04,15,12,27,14.30
2020,04,15,12,28,14.30
2020,04,15,12,29,14.40
2020,04,15,12,30,14.40
2020,04,15,12,31,14.40
2020,04,15,12,32,14.40
2020,04,15,12,33,14.40
2020,04,15,12,34,14.50
2020,04,15,12,35,14.60
2020,04,15,12,36,14.70
2020,04,15,12,37,14.70
2020,04,15,12,38,14.70
2020,04,15,12,39,14.70
2020,04,15,12,40,14.60
2020,04,15,12,41,14.60
2020,04,15,12,42,14.60
2020,04,15,12,43,14.60
2020,04,15,12,44,14.70
2020,04,15,12,45,14.70
2020,04,15,12,46,14.80
2020,04,15,12,47,14.90
2020,04,15,12,48,15.00
2020,04,15,12,49,15.10
2020,04,15,12,50,15.20
2020,04,15,12,51,15.20
2020,04,15,12,52,15.20
2020,04,15,12,53,15.30
2020,04,15,12,54,15.30
2020,04,15,12,55,15.40
2020,04,15,12,56,15.50
2020,04,15,12,57,15.50
2020,04,15,12,58,15.50
2020,04,15,12,59,15.60
2020,04,15,13,00,15.60
2020,04,15,13,01,15.60
2020,04,15,13,02,15.60
2020,04,15,13,03,15.60
2020,04,15,13,04,15.70
2020,04,15,13,05,15.80
2020,04,15,13,06,15.90
2020,04,15,13,07,16.00
2020,04,15,13,08,16.00
2020,04,15,13,09,16.10
2020,04,15,13,10,16.10
2020,04,15,13,11,16.00
2020,04,15,13,12,16.00
2020,04,15,13,13,16.00
2020,04,15,13,14,15.90
2020,04,15,13,15,16.00
2020,04,15,13,16,16.00
2020,04,15,13,17,16.00
2020,04,15,13,18,16.00
2020,04,15,13,19,15.90
2020,04,15,13,20,15.80
2020,04,15,13,21,15.70
2020,04,15,13,22,15.70
2020,04,15,13,23,15.70
2020,04,15,13,24,15.60
2020,04,15,13,25,15.60
2020,04,15,13,26,15.60
2020,04,15,13,27,15.60
2020,04,15,13,28,15.60
2020,04,15,13,29,15.70
2020,04,15,13,30,15.80
2020,04,15,13,31,15.80
2020,04,15,13,32,15.90
2020,04,15,13,33,15.90
2020,04,15,13,34,16.00
2020,04,15,13,35,16.00
2020,04,15,13,36,16.00
2020,04,15,13,37,16.00
2020,04,15,13,38,15.90
2020,04,15,13,39,15.90
2020,04,15,13,40,16.00
2020,04,15,13,41,16.00
2020,04,15,13,42,16.10
2020,04,15,13,43,16.10
2020,04,15,13,44,16.20
2020,04,15,13,45,16.10
2020,04,15,13,46,16.10
2020,04,15,13,47,16.00
2020,04,15,13,48,15.90
2020,04,15,13,49,16.00
2020,04,15,13,50,16.10
2020,04,15,13,51,16.30
2020,04,15,13,52,16.50
2020,04,15,13,53,16.60
2020,04,15,13,54,16.60
2020,04,15,13,55,16.50
2020,04,15,13,56,16.40
2020,04,15,13,57,16.30
2020,04,15,13,58,16.30
2020,04,15,13,59,16.30
2020,04,15,14,00,16.20
2020,04,15,14,01,16.20
2020,04,15,14,02,16.20
2020,04,15,14,03,16.20
2020,04,15,14,04,16.20
2020,04,15,14,05,16.30
2020,04,15,14,06,16.30
2020,04,15,14,07,16.40
2020,04,15,14,08,16.50
2020,04,15,14,09,16.60
2020,04,15,14,10,16.60
2020,04,15,14,11,16.60
2020,04,15,14,12,16.70
2020,04,15,14,13,16.80
2020,04,15,14,14,17.00
2020,04,15,14,15,17.10
2020,04,15,14,16,17.20
2020,04,15,14,17,17.20
2020,04,15,14,18,17.20
2020,04,15,14,19,17.30
2020,04,15,14,20,17.40
2020,04,15,14,21,17.40
2020,04,15,14,22,17.40
2020,04,15,14,23,17.40
2020,04,15,14,24,17.40
2020,04,15,14,25,17.40
2020,04,15,14,26,17.40
2020,04,15,14,27,17.40
2020,04,15,14,28,17.40
2020,04,15,14,29,17.40
2020,04,15,14,30,17.30
2020,04,15,14,31,17.30
2020,04,15,14,32,17.30
2020,04,15,14,33,17.30
2020,04,15,14,34,17.30
2020,04,15,14,35,17.30
2020,04,15,14,36,17.40
2020,04,15,14,37,17.40
2020,04,15,14,38,17.40
2020,04,15,14,39,17.50
2020,04,15,14,40,17.50
2020,04,15,14,41,17.60
2020,04,15,14,42,17.70
2020,04,15,14,43,17.70
2020,04,15,14,44,17.80
2020,04,15,14,45,17.80
2020,04,15,14,46,17.90
2020,04,15,14,47,18.00
2020,04,15,14,48,18.10
2020,04,15,14,49,18.20
2020,04,15,14,50,18.20
2020,04,15,14,51,18.30
2020,04,15,14,52,18.30
2020,04,15,14,53,18.20
2020,04,15,14,54,18.20
2020,04,15,14,55,18.20
2020,04,15,14,56,18.10
2020,04,15,14,57,18.10
2020,04,15,14,58,18.00
2020,04,15,14,59,18.10
2020,04,15,15,00,18.10
2020,04,15,15,01,18.10
2020,04,15,15,02,18.10
2020,04,15,15,03,18.10
2020,04,15,15,04,18.10
2020,04,15,15,05,18.20
2020,04,15,15,06,18.30
2020,04,15,15,07,18.50
2020,04,15,15,08,18.60
2020,04,15,15,09,18.70
2020,04,15,15,10,18.80
2020,04,15,15,11,18.90
2020,04,15,15,12,18.90
2020,04,15,15,13,19.00
2020,04,15,15,14,19.10
2020,04,15,15,15,19.10
2020,04,15,15,16,19.10
2020,04,15,15,17,19.10
2020,04,15,15,18,19.10
2020,04,15,15,19,19.10
2020,04,15,15,20,19.10
2020,04,15,15,21,19.10
2020,04,15,15,22,19.10
2020,04,15,15,23,19.20
2020,04,15,15,24,19.20
2020,04,15,15,25,19.20
2020,04,15,15,26,19.10
2020,04,15,15,27,19.10
2020,04,15,15,28,19.10
2020,04,15,15,29,19.10
2020,04,15,15,30,19.10
2020,04,15,15,31,19.10
2020,04,15,15,32,19.10
2020,04,15,15,33,19.10
2020,04,15,15,34,19.00
2020,04,15,15,35,19.00
2020,04,15,15,36,18.90
2020,04,15,15,37,18.90
2020,04,15,15,38,18.80
2020,04,15,15,39,18.80
2020,04,15,15,40,18.80
2020,04,15,15,41,18.70
2020,04,15,15,42,18.70
2020,04,15,15,43,18.70
2020,04,15,15,44,18.70
2020,04,15,15,45,18.80
2020,04,15,15,46,18.80
2020,04,15,15,47,18.80
2020,04,15,15,48,18.70
2020,04,15,15,49,18.70
2020,04,15,15,50,18.70
2020,04,15,15,51,18.70
2020,04,15,15,52,18.70
2020,04,15,15,53,18.70
2020,04,15,15,54,18.70
2020,04,15,15,55,18.80
2020,04,15,15,56,18.80
2020,04,15,15,57,18.80
2020,04,15,15,58,18.80
2020,04,15,15,59,18.90
2020,04,15,16,00,19.00
2020,04,15,16,01,19.10
2020,04,15,16,02,19.10
2020,04,15,16,03,19.20
2020,04,15,16,04,19.20
2020,04,15,16,05,19.20
2020,04,15,16,06,19.20
2020,04,15,16,07,19.20
2020,04,15,16,08,19.30
2020,04,15,16,09,19.40
2020,04,15,16,10,19.60
2020,04,15,16,11,19.70
2020,04,15,16,12,19.90
2020,04,15,16,13,20.00
2020,04,15,16,14,20.10
2020,04,15,16,15,20.10
2020,04,15,16,16,20.20
2020,04,15,16,17,20.20
2020,04,15,16,18,20.30
2020,04,15,16,19,20.30
2020,04,15,16,20,20.40
2020,04,15,16,21,20.40
2020,04,15,16,22,20.40
2020,04,15,16,23,20.40
2020,04,15,16,24,20.40
2020,04,15,16,25,20.40
2020,04,15,16,26,20.60
2020,04,15,16,27,20.70
2020,04,15,16,28,20.80
2020,04,15,16,29,20.80
2020,04,15,16,30,20.90
2020,04,15,16,31,20.80
2020,04,15,16,32,20.80
2020,04,15,16,33,20.80
2020,04,15,16,34,20.70
2020,04,15,16,35,20.70
2020,04,15,16,36,20.80
2020,04,15,16,37,20.90
2020,04,15,16,38,21.00
2020,04,15,16,39,20.90
2020,04,15,16,40,20.80
2020,04,15,16,41,20.80
2020,04,15,16,42,20.80
2020,04,15,16,43,20.80
2020,04,15,16,44,20.80
2020,04,15,16,45,20.90
2020,04,15,16,46,21.00
2020,04,15,16,47,20.90
2020,04,15,16,48,20.80
2020,04,15,16,49,20.80
2020,04,15,16,50,20.80
2020,04,15,16,51,20.80
2020,04,15,16,52,20.80
2020,04,15,16,53,20.90
2020,04,15,16,54,20.90
2020,04,15,16,55,20.90
2020,04,15,16,56,20.80
2020,04,15,16,57,20.80
2020,04,15,16,58,20.80
2020,04,15,16,59,20.80
2020,04,15,17,00,20.80
2020,04,15,17,01,20.80
2020,04,15,17,02,20.80
2020,04,15,17,03,20.90
2020,04,15,17,04,20.90
2020,04,15,17,05,20.90
2020,04,15,17,06,20.90
2020,04,15,17,07,21.00
2020,04,15,17,08,21.00
2020,04,15,17,09,20.90
2020,04,15,17,10,20.90
2020,04,15,17,11,21.00
2020,04,15,17,12,21.00
2020,04,15,17,13,21.00
2020,04,15,17,14,20.90
2020,04,15,17,15,20.80
2020,04,15,17,16,20.80
2020,04,15,17,17,20.70
2020,04,15,17,18,20.60
2020,04,15,17,19,20.60
2020,04,15,17,20,20.70
2020,04,15,17,21,20.70
2020,04,15,17,22,20.80
2020,04,15,17,23,20.80
2020,04,15,17,24,20.80
2020,04,15,17,25,20.80
2020,04,15,17,26,20.90
2020,04,15,17,27,20.90
2020,04,15,17,28,20.90
2020,04,15,17,29,20.90
2020,04,15,17,30,20.90
2020,04,15,17,31,20.90
2020,04,15,17,32,20.90
2020,04,15,17,33,20.90
2020,04,15,17,34,20.90
2020,04,15,17,35,20.80
2020,04,15,17,36,20.80
2020,04,15,17,37,20.80
2020,04,15,17,38,20.80